Weather Roundup
Issued by NWS Springfield, MO

Home | Current Version | Previous Version | Text Only | Print | Product List | Glossary On
Versions: 1 2 3 4 5 6 7 8 9 10 11 12 13 14 15 16 17 18 19 20 21 22 23 24 25 26 27 28 29 30 31 32 33 34 35 36 37 38 39 40 41 42 43 44 45 46 47 48 49 50
000
NZUS99 KSGF 221207
HRRSGF

HOURLY WEATHER
NATIONAL WEATHER SERVICE SPRINGFIELD MO
600 AM CST WED NOV 22 2017

......SGF CWA......

CITY           SKY/WX    TMP DP  RH WIND       PRES   REMARKS
SPRINGFIELD    PTCLDY    21  17  84 N6        30.37R WCI  13
6HR MIN TEMP:  20; 6HR MAX TEMP:  31;

JOPLIN         CLOUDY    21  18  88 N3        30.42R
6HR MIN TEMP:  21; 6HR MAX TEMP:  30;

WEST PLAINS    CLOUDY    26  17  68 N8        30.36R WCI  18
6HR MIN TEMP:  26; 6HR MAX TEMP:  36;

ROLLA          CLOUDY    20  15  81 NW3       30.38R
6HR MIN TEMP:  19; 6HR MAX TEMP:  28;

OSAGE BEACH    PTCLDY    22  17  81 CALM      30.41R
BRANSON        CLOUDY    25  19  80 NW7       30.38R WCI  17

......SURROUNDING SGF CWA......

CITY           SKY/WX    TMP DP  RH WIND       PRES   REMARKS
CHANUTE        PTCLDY    21  14  74 N5        30.42S WCI  15
PARSONS        CLOUDY    20  16  84 CALM      30.43F
COFFEYVILLE    CLOUDY    23  17  78 CALM      30.43F
EMPORIA        CLOUDY    18  12  77 CALM      30.42S
GROVE OK       CLOUDY    30  21  69 CALM      30.42S
ROGERS AR      CLOUDY    25  19  78 NE8       30.38R WCI  16
SILOAM SPRINGS CLOUDY    24  19  81 NE6       30.38R WCI  17
HARRISON AR    CLOUDY    26  19  74 NW5       30.36S WCI  20
NEAR YELLVILLE CLOUDY    30  20  66 N5        30.40R WCI  25

......KANSAS AND MISSOURI......

CITY           SKY/WX    TMP DP  RH WIND       PRES   REMARKS
KANSAS CTY INT CLOUDY    18  12  77 N3        30.41S
DOWNTOWN KC    CLOUDY    24  13  62 NW6       30.43S WCI  17
COLUMBIA       PTCLDY    21  15  78 NW5       30.40R WCI  15
SEDALIA        CLOUDY    22  18  85 N6        30.42S WCI  14
ST JOSEPH      CLOUDY    19  14  81 CALM      30.43S
ST LOUIS       CLOUDY    25  18  74 NW6       30.39R WCI  18
SPIRIT OF STL  PTCLDY    25  18  74 NW5       30.39S WCI  19
KIRKSVILLE     PTCLDY    18  14  84 NW5       30.40R WCI  11
WICHITA        CLOUDY    24  15  68 NE8       30.41F WCI  15
TOPEKA         CLOUDY    19  14  81 SW3       30.44R
OLATHE         CLOUDY    21  13  71 N3        30.41R

......TENNESSEE......

CITY           SKY/WX    TMP DP  RH WIND       PRES   REMARKS
MEMPHIS        CLEAR     36  26  67 N14G26    30.31R WCI  27
NASHVILLE      PTCLDY    33  25  72 N9G18     30.25R WCI  25

......ARKANSAS.......

CITY           SKY/WX    TMP DP  RH WIND       PRES   REMARKS
FAYETTEVILLE   CLOUDY    28  20  71 NE5       30.37R WCI  23
FT SMITH       CLEAR     34  22  61 CALM      30.37R
LITTLE ROCK    CLEAR     39  23  52 N14       30.34R WCI  31

......OKLAHOMA.......

CITY           SKY/WX    TMP DP  RH WIND       PRES   REMARKS
TULSA          MOCLDY    27  18  69 N9        30.44S WCI  18
PONCA CITY     MOCLDY    23  14  68 CALM      30.43S
MCALESTER      MOCLDY    32  20  61 N13       30.38S WCI  22
OKLAHOMA CITY  CLOUDY    29  14  53 NE10      30.41R WCI  20

......IOWA............

CITY           SKY/WX    TMP DP  RH WIND       PRES   REMARKS
DES MOINES     CLOUDY    17  10  74 NW3       30.39F
QUAD CITIES    PTCLDY    19  12  74 W3        30.38S

......ILLINOIS........

CITY           SKY/WX    TMP DP  RH WIND       PRES   REMARKS
QUINCY         CLOUDY    19  15  84 N6        30.38S WCI  11
CHICAGO        PTCLDY    23  15  71 NW8       30.32R WCI  14




USA.gov is the U.S. government's official web portal to all federal, state and local government web resources and services.